Terminal Aerodrome Forecast
Issued by NWS Oklahoma City, OK

Home | Current Version | Previous Version | Text Only | Print | Product List | Glossary On
Versions: 1 2 3 4 5 6 7 8 9 10 11 12 13 14 15 16 17 18 19 20 21 22 23 24 25 26 27 28 29 30 31 32 33 34
000
FTUS44 KOUN 041529 AAB
TAFOUN
TAF AMD
KOUN 041529Z 0415/0512 02020G30KT P6SM OVC020
      TEMPO 0416/0420 2SM -FZRAPLSN BR OVC005
     FM042000 01019G27KT 1SM -SN OVC007
     FM050100 01016G27KT 5SM -SN BR OVC010
     FM050600 02013KT 5SM BR OVC015=

USA.gov is the U.S. government's official web portal to all federal, state and local government web resources and services.